Regional Weather Roundup
Issued by NWS

Home | Current Version | Previous Version | Graphics & Text | Print | Product List | Glossary On
Versions: 1 2 3 4 5 6 7 8 9 10 11 12 13 14 15 16 17 18 19 20 21 22 23 24 25 26 27 28 29 30 31 32 33 34 35 36 37 38 39 40 41 42 43 44 45 46 47 48 49 50
005
ASUS45 KBOI 292310
RWRID

IDAHO REGIONAL WEATHER ROUNDUP
NATIONAL WEATHER SERVICE BOISE ID
500 PM MDT WED MAR 29 2017

NOTE: "FAIR" INDICATES FEW OR NO CLOUDS BELOW 12000 FEET
WITH NO SIGNIFICANT WEATHER AND/OR OBSTRUCTIONS TO VISIBILITY

IDZ012-014-300000-
SOUTHWEST IDAHO


CITY           SKY/WX    TMP DP  RH WIND       PRES   REMARKS
BOISE          CLOUDY    60  38  43 E16       30.01F
CALDWELL       CLOUDY    61  40  45 E16       29.99F
MOUNTAIN HOME  CLOUDY    64  44  48 E10       30.02F
$$

IDZ016-017-300000-
SOUTHCENTRAL IDAHO


CITY           SKY/WX    TMP DP  RH WIND       PRES   REMARKS
BURLEY         CLOUDY    58  33  39 W10       30.07F
JEROME         CLOUDY    58  36  43 W5        30.08F
TWIN FALLS     CLOUDY    58  37  45 W12       30.08F
$$

IDZ019>023-300000-
SOUTHEAST IDAHO


CITY           SKY/WX    TMP DP  RH WIND       PRES   REMARKS
IDAHO FALLS    CLOUDY    53  34  48 SW17G25   30.09F
POCATELLO      CLOUDY    57  35  43 SW16      30.09F
REXBURG        CLOUDY    48  35  60 S10       30.08F
$$

IDZ006-010-011-018-031-032-300000-
CENTRAL IDAHO MOUNTAINS


CITY           SKY/WX    TMP DP  RH WIND       PRES   REMARKS
MCCALL         LGT RAIN  39  36  89 SE8       30.03F WCI  33
HAILEY         PTSUNNY   52  36  54 E7        30.10F
STANLEY          N/A     43  34  70 CALM      30.07F
SALMON         CLOUDY    48  41  76 N6        29.97S
CHALLIS        CLOUDY    55  35  47 VRB6      29.98F
$$

IDZ002-004-006-007-026-300000-
NORTHERN IDAHO


CITY           SKY/WX    TMP DP  RH WIND       PRES   REMARKS
LEWISTON       CLOUDY    52  48  86 NE6       29.91F
LOWELL           N/A     47  44  90 CALM      30.01S
COEUR D`ALENE  LGT RAIN  45  44  97 S10       29.88S
MULLAN PASS    MIX PCPN  32  32 100 S9        29.88S VSB 1/4 WCI  24
$$




USA.gov is the U.S. government's official web portal to all federal, state and local government web resources and services.